This is the latest recevied weather packets stored in our database for station/object W1LBM. If no packets are shown the sender has not sent any weather packets the latest 10 day(s).
| Time | Temp. | Humidity | Pressure | Rain* | Wind** | Luminosity | Snow |
|---|---|---|---|---|---|---|---|
| 1777940531 | 15° C | 54% | 1013.1 hPa | 0 mm | - | 0 W/m² | - |
| 1777940228 | 15° C | 53% | 1013.1 hPa | 0 mm | - | 0 W/m² | - |
| 1777939925 | 15° C | 52% | 1012.9 hPa | 0 mm | - | 0 W/m² | - |
| 1777939622 | 15° C | 51% | 1012.8 hPa | 0 mm | - | 0 W/m² | - |
| 1777939320 | 15.56° C | 51% | 1013 hPa | 0 mm | - | 0 W/m² | - |
| 1777939016 | 15.56° C | 51% | 1012.9 hPa | 0 mm | - | 1 W/m² | - |
| 1777938712 | 15.56° C | 50% | 1012.6 hPa | 0 mm | - | 1 W/m² | - |
| 1777938410 | 15.56° C | 51% | 1012.8 hPa | 0 mm | - | 2 W/m² | - |
| 1777938107 | 15.56° C | 49% | 1012.4 hPa | 0 mm | - | 4 W/m² | - |
| 1777937803 | 16.11° C | 49% | 1012.4 hPa | 0 mm | - | 6 W/m² | - |
| 1777937499 | 16.11° C | 48% | 1012.4 hPa | 0 mm | - | 9 W/m² | - |
| 1777937197 | 16.67° C | 48% | 1012.2 hPa | 0 mm | - | 11 W/m² | - |
| 1777936893 | 16.67° C | 47% | 1012.5 hPa | 0 mm | - | 14 W/m² | - |
| 1777936590 | 16.67° C | 46% | 1012.3 hPa | 0 mm | - | 17 W/m² | - |
| 1777936286 | 16.67° C | 46% | 1012 hPa | 0 mm | - | 20 W/m² | - |
| 1777935982 | 17.22° C | 45% | 1012 hPa | 0 mm | - | 25 W/m² | - |
| 1777935682 | 17.78° C | 46% | 1012.1 hPa | 0 mm | - | 35 W/m² | - |
| 1777935379 | 17.78° C | 46% | 1012.1 hPa | 0 mm | - | 44 W/m² | - |
| 1777935075 | 17.78° C | 46% | 1012 hPa | 0 mm | - | 47 W/m² | - |
| 1777934772 | 17.78° C | 46% | 1012 hPa | 0 mm | - | 37 W/m² | - |
| 1777934469 | 17.78° C | 45% | 1011.7 hPa | 0 mm | - | 34 W/m² | - |
| 1777934166 | 17.78° C | 46% | 1011.8 hPa | 0 mm | - | 27 W/m² | - |
| 1777933861 | 18.33° C | 44% | 1011.8 hPa | 0 mm | - | 34 W/m² | - |
| 1777933559 | 18.33° C | 44% | 1011.8 hPa | 0 mm | - | 48 W/m² | - |
| 1777933256 | 18.89° C | 44% | 1011.6 hPa | 0 mm | - | 58 W/m² | - |
* Rain latest hour (hover to see other rain measurements)
** Current wind speed in m/s (hover to see current wind gust speed)